Regional Weather Roundup
Issued by NWS Charleston, SC

Current Version | Previous Version | Graphics & Text | Print | Product List | Glossary On
Versions: 1 2 3 4 5 6 7 8 9 10 11 12 13 14 15 16 17 18 19 20 21 22 23 24 25 26 27 28 29 30 31 32 33 34 35 36 37 38 39 40 41 42 43 44 45 46 47 48 49 50
000 ASUS42 KCHS 261910 RWRCHS REGIONAL WEATHER ROUNDUP NATIONAL WEATHER SERVICE CHARLESTON SC 200 PM EST FRI DEC 26 2014 NOTE: "FAIR" INDICATES FEW OR NO CLOUDS BELOW 12,000 FEET WITH NO SIGNIFICANT WEATHER AND/OR OBSTRUCTIONS TO VISIBILITY. NOT ALL STATIONS ARE QUALITY CONTROLLED BY THE NATIONAL WEATHER SERVICE. USE DATA WITH CAUTION...ESPECIALLY DEWPOINT OBSERVATIONS. SCZ027-030-031-034>040-042>050-262000- ...SOUTHEAST SOUTH CAROLINA... CITY SKY/WX TMP DP RH WIND PRES REMARKS N CHARLESTON FAIR 63 45 51 VRB3 30.28F WATERFRONT PRK N/A 63 N/A N/A SE6 N/A MOUNT PLEASANT LGT RAIN 64 48 55 SE6 30.28F PINOPOLIS NOT AVBL MONCKS CORNER FAIR 63 45 51 N3 30.28S SUMMERVILLE FAIR 64 43 45 SE5 30.29S BEAUFORT MCAS FAIR 63 44 50 VRB3 30.28F BEAUFORT ARPT FAIR 63 50 63 NE3 30.27F HILTON HEAD IS SUNNY 63 48 59 N6 30.29F WALTERBORO FAIR 63 34 34 S3 30.27F ALLENDALE FAIR 61 37 41 CALM 30.27F ...SOUTHERN MIDLANDS AND PEE DEE... CITY SKY/WX TMP DP RH WIND PRES REMARKS GEORGETOWN NOT AVBL KINGSTREE NOT AVBL ORANGEBURG FAIR 60 37 42 CALM 30.29F BARNWELL FAIR 63 39 42 CALM 30.29F AIKEN FAIR 59 37 44 N3 30.32S MANNING FAIR 63 41 45 NW3 30.29F COLUMBIA FAIR 60 37 42 CALM 30.29F SUMTER FAIR 58 34 40 CALM 30.27F FLORENCE FAIR 60 33 36 CALM 30.29F MYRTLE BEACH SUNNY 63 43 48 SE7 30.29 N MYRTLE BEACH FAIR 60 42 51 S3 30.28F $$ GAZ063-065-086>088-099>101-113>116-118-119-134>141-150-262000- ...SOUTHEAST GEORGIA... CITY SKY/WX TMP DP RH WIND PRES REMARKS SAVANNAH ARPT FAIR 64 45 49 CALM 30.27F HUNTER AAF FAIR 65 49 56 SW1 30.25F FORT STEWART FAIR 64 47 53 N1 30.25F STATESBORO FAIR 60 41 48 CALM 30.28F SYLVANIA FAIR 61 42 50 CALM 30.29S CLAXTON FAIR 61 43 51 CALM 30.27F ...CSRA...CENTRAL AND FAR SOUTHEAST GEORGIA... CITY SKY/WX TMP DP RH WIND PRES REMARKS THOMSON FAIR 59 41 50 NE3 30.32F AUGUSTA-BUSH FAIR 59 37 44 N3 30.29F AUGUSTA-DANIEL FAIR 59 37 44 CALM 30.29F SWAINSBORO FAIR 61 43 51 CALM 30.28F VIDALIA FAIR 61 43 51 NE3 30.27F EASTMAN FAIR 61 40 46 E3 30.30F HAZLEHURST FAIR 61 42 50 CALM 30.26F ALMA FAIR 62 40 44 E6 30.26F WAYCROSS FAIR 66 43 42 E3 30.25F JESUP FAIR 68 50 52 SE3 30.26F BAXLEY FAIR 63 43 48 CALM 30.27S BRUNSWICK FAIR 64 46 52 E7 30.26F SAINT SIMONS FAIR 63 48 58 NE9 30.26F $$ SCZ027-028-034-036>038-045-046-048>050-GAZ119-141-262000- ...LAKE AND SUPPLEMENTAL COASTAL OBSERVATIONS... STATION/POSITION TIME TEMP WIND PRES WAVE SWELL AIR SEA DIR/SP/G HT/PER HT/PER/DIR (UTC) (F) (DEG/KT/KT) (MB) (FT/S) (FT/S/D) UPR LAKE MARION NOT AVBL WINYAH BAY 1800 56 70/ 7 1026.0S LAKE MURRAY 1800 55 CALM / 1 1025.1F ACE BASIN NERRS 1800 65 CALM 1026.0S FORT PULASKI 1900 59 56 60/ 7/ 8 1025.4F SAPELO ISLAND 1800 61 360/ 8 1025.0F $$ ANZ835-935-AMZ111-154-330-350-352-354-370-450-454-472-262000- ...C-MAN AND BUOY OBSERVATIONS... STATION/POSITION TIME TEMP WIND PRES WAVE SWELL AIR SEA DIR/SP/G HT/PER HT/PER/DIR (UTC) (F) (DEG/KT/KT) (MB) (FT/S) (FT/S/D) BUOY 41004 1900 62 72 20/ 12/ 16 1024.4F 3/ 7 2/ 7 BUOY 41008 1900 57 59 20/ 14/ 16 1024.5F 2/ 4 2/110/ 8 FOLLY BEACH CMAN 1900 58 60/ 7/ 7 1025.6F CAPERS NEARSHORE 1800 58 40/ 8/ 10 N/A FRIPP NEARSHORE NOT AVBL STATION/POSITION TIME TEMP WIND PRES WAVE SWELL AIR SEA DIR/SP/G HT/PER HT/PER/DIR (UTC) (F) (DEG/KT/KT) (MB) (FT/S) (FT/S/D) 5E ST. MARYS GA 1900 62 N/A 3/ 4 FRYING PAN BUOY 1900 58 69 20/ 12/ 16 1025.7F 2/ 8 2/140/ 8 BUOY 41025 NOT AVBL CAPE LOOKOUT NC 1900 57 310/ 5/ 6 1025.5F BUOY 41002 1836 67 74 60/ 8/ 12 1024.1F 4/ 7 3/180/ 7 BUOY 41010 1900 73 76 80/ 6/ 8 1022.3F 3/ 7 3/100/ 7 ST AUGUSTINE FL 1900 60 360/ 17/ 19 1024.2F $$

USA.gov is the U.S. government's official web portal to all federal, state and local government web resources and services.